Simultaneous Nadir Overpasses (SNOs) Predictions

Prediction of SNOs between GOES-14 and NOAA-20 Satellite Orbit:

Table of predicted SNOs for the next 14.0 days since TLE Epoch: 2/1/2019
Index Date Time (GOES-14) GOES-14 Lat,Lon NOAA-20 Lat,Lon Distance(km) Time Diff (sec)
1 02/01/2019 20:36:20 0.00,-104.13 0.00,-107.48 372.23 80
2 02/02/2019 20:14:43 -0.02,-104.13 0.28,-102.78 153.72 80
3 02/04/2019 08:36:33 0.02,-104.36 0.87,-108.06 422.54 80
4 02/05/2019 08:20:29 0.01,-104.36 -0.18,-103.54 94.06 80
5 02/07/2019 20:23:42 -0.01,-104.15 -0.02,-104.31 17.53 80
6 02/08/2019 20:02:17 -0.01,-104.15 0.97, -99.77 499.31 80
7 02/10/2019 08:24:07 0.01,-104.38 0.18,-105.04 76.73 80
8 02/11/2019 08:08:03 0.00,-104.38 -0.87,-100.52 440.09 80
9 02/12/2019 20:30:00 -0.00,-104.17 -0.36,-105.81 187.62 80
10 02/13/2019 20:08:35 -0.00,-104.17 0.62,-101.28 328.64 80
11 02/15/2019 08:30:25 -0.00,-104.38 0.47,-106.57 248.54 80




NCC Satellite Simultaneous Nadir Overpasses (SNOs) Prediction Service
